Terminal Aerodrome Forecast
Issued by NWS

Home | Current Version | Previous Version | Graphics & Text | Print | Product List | Glossary On
Versions: 1 2 3 4 5 6 7 8 9 10 11 12 13 14 15 16
000
FTUS43 KGRB 311741
TAFCWA
TAF
KCWA 311741Z 3118/0118 29015G23KT P6SM SCT050
      TEMPO 3118/3122 BKN050
     FM010000 29004KT P6SM SKC
     FM011500 30010KT P6SM SKC=

USA.gov is the U.S. government's official web portal to all federal, state and local government web resources and services.